[[{"header":{"parameterUnit":"m.s-1","parameterCategory":1,"la1":30.2991,"la2":30.254,"lo1":-89.0895,"lo2":-89.0444,"dy":0.0017,"dx":0.0017,"nx":28,"ny":28,"refTime":"2024-07-22T21:00:00:Z","depth":0,"parameterNumber":2,"parameterNumberName":"U-component_of_WINDS"},"data":[0,0,0,0,0,0,0,0,0,0,0,0,0,0,0,0,0,0,0,0,0,0,0,0,0,0,0,0,0,0,0,0,0,0,0,0,0,0,0,0,0,0,0,0,0,0,0,0,0,0,0,0,0,0,0,0,0,0,-2.4579,-2.4579,0,-2.4637,-2.4637,-2.4638,-2.46,-2.4598,-2.4596,-2.4594,-2.4652,-2.4655,-2.4658,0,0,0,0,0,0,0,0,0,0,0,0,0,-2.4431,-2.4434,-2.4578,-2.4579,-2.458,-2.4637,-2.4638,-2.4638,-2.46,-2.4598,-2.4596,-2.4594,-2.4651,-2.4655,-2.4659,0,0,0,0,0,0,0,0,0,0,0,0,0,-2.4493,-2.4435,-2.4578,-2.4568,-2.4567,-2.4637,-2.4638,-2.4639,-2.46,-2.4598,-2.4595,-2.4592,-2.465,-2.4655,-2.4659,-2.4742,0,0,-2.4674,-2.4676,0,0,0,0,0,0,0,0,-2.449,-2.4498,-2.4568,-2.4568,-2.4568,-2.4608,-2.4607,-2.4673,-2.4601,-2.4588,-2.4594,-2.4591,-2.464,-2.4645,-2.4662,-2.4745,-2.4747,-2.4674,-2.4677,-2.4679,-2.4681,0,0,0,0,0,0,0,-2.4485,-2.4496,-2.4601,-2.457,-2.4569,-2.4559,-2.4565,-2.4619,-2.4628,-2.4589,-2.4586,-2.4594,-2.4639,-2.4657,-2.4663,-2.4748,-2.4674,-2.4678,-2.4681,-2.4683,-2.49,-2.4903,0,0,0,0,0,0,-2.4482,-2.4492,-2.46,-2.4603,-2.4522,-2.4564,-2.457,-2.4598,-2.4627,-2.4629,-2.4596,-2.4592,-2.465,-2.4657,-2.4665,-2.4762,-2.4679,-2.4684,-2.4686,-2.4897,-2.49,-2.4904,0,0,0,0,0,0,-2.4479,-2.4492,-2.4597,-2.4547,-2.456,-2.4569,-2.4601,-2.4601,-2.4619,-2.4632,-2.4633,-2.4613,-2.4649,-2.4658,-2.4723,-2.4763,-2.4686,-2.469,-2.4894,-2.4898,-2.4902,-2.4958,0,0,0,0,0,0,-2.4475,-2.4491,-2.4523,-2.4548,-2.4563,-2.4655,-2.4603,-2.4604,-2.4627,-2.4622,-2.4649,-2.4651,-2.4647,-2.4716,-2.4727,-2.4769,-2.4694,-2.489,-2.4896,-2.4901,-2.4952,-2.4964,-2.4973,0,0,0,0,0,-2.447,-2.4537,-2.4525,-2.4538,-2.4603,-2.4658,-2.4666,-2.4661,-2.4631,-2.4662,-2.4671,-2.465,-2.4758,-2.4723,-2.4736,-2.4779,-2.4887,-2.4894,-2.49,-2.4948,-2.4961,-2.4973,0,0,0,0,0,0,-2.4516,-2.454,-2.4527,-2.4604,-2.4629,-2.4651,-2.4691,-2.4676,-2.4709,-2.4703,-2.4695,-2.4702,-2.4769,-2.4781,-2.4741,-2.486,-2.4817,-2.4827,-2.4849,-2.4862,-2.4872,-2.4867,-2.4698,0,0,0,0,0,-2.4535,-2.4578,-2.4596,-2.4662,-2.4676,-2.4681,-2.4705,-2.4699,-2.4724,-2.4735,-2.4748,-2.4773,-2.4812,-2.4838,-2.4875,-2.4954,-2.4959,-2.499,-2.5001,-2.5009,-2.5017,-2.5058,-2.5072,-2.4925,-2.4925,-2.4925,0,0,-2.4574,-2.4593,-2.462,-2.4672,-2.469,-2.4734,-2.469,-2.4739,-2.4771,-2.4742,-2.4803,-2.4814,-2.4841,-2.4914,-2.4946,-2.4925,-2.5059,-2.5018,-2.5024,-2.5027,-2.5066,-2.508,-2.5093,-2.4929,-2.4928,-2.4928,0,0,-2.4668,-2.4688,-2.4744,-2.4764,-2.4793,-2.4796,-2.481,-2.4834,-2.484,-2.4902,-2.4881,-2.4919,-2.4987,-2.5007,-2.5026,-2.5128,-2.5109,-2.5141,-2.5194,-2.5234,-2.5246,-2.5256,-2.5291,-2.5304,-2.5148,-2.5149,-2.5149,0,-2.4713,-2.4779,-2.4774,-2.4824,-2.4847,-2.4824,-2.488,-2.4899,-2.4939,-2.4954,-2.4931,-2.5016,-2.5033,-2.5108,-2.5133,-2.515,-2.5164,-2.5136,-2.5245,-2.5255,-2.5264,-2.5297,-2.5311,-2.5152,-2.5152,-2.5151,-2.5151,0,-2.4833,-2.4879,-2.492,-2.496,-2.4987,-2.504,-2.5042,-2.5071,-2.5063,-2.5068,-2.5131,-2.5151,-2.5191,-2.5209,-2.5201,-2.5283,-2.5269,-2.5246,-2.5203,-2.5282,-2.5313,-2.5325,-2.5157,-2.5156,-2.5155,-2.5154,0,0,-2.4956,-2.4992,-2.5007,-2.5024,-2.5055,-2.509,-2.5141,-2.5181,-2.5205,-2.5233,-2.5275,-2.5334,-2.5312,-2.5333,-2.5328,-2.5364,-2.5442,-2.5336,-2.5336,-2.5353,-2.5531,-2.5547,-2.5562,-2.543,-2.5432,-2.5434,-2.5528,0,-2.505,-2.514,-2.5137,-2.5221,-2.5263,-2.5241,-2.5286,-2.5309,-2.5316,-2.5352,-2.5359,-2.54,-2.5369,-2.5382,-2.5416,-2.5425,-2.5477,-2.5418,-2.5468,-2.5469,-2.5459,-2.5578,-2.5596,-2.5683,-2.554,-2.5543,-2.5544,0,-2.5172,-2.5204,-2.5292,-2.5316,-2.5333,-2.5374,-2.5409,-2.5445,-2.547,-2.5472,-2.5497,-2.5486,-2.5537,-2.5495,-2.5564,-2.5525,-2.5545,-2.5552,-2.5555,-2.5558,-2.551,-2.5583,-2.5711,-2.5724,-2.5563,-2.5562,-2.556,0,-2.525,-2.5317,-2.5377,-2.5393,-2.5423,-2.5451,-2.5465,-2.5488,-2.5512,-2.5543,-2.5558,-2.5595,-2.5615,-2.5643,-2.5642,-2.5612,-2.5712,-2.567,-2.5714,-2.5714,-2.5735,-2.5733,-2.5867,-2.5752,-2.5751,-2.5751,-2.5751,0,-2.5355,-2.5409,-2.5413,-2.545,-2.551,-2.5506,-2.5565,-2.5576,-2.5597,-2.5635,-2.5619,-2.5655,-2.5653,-2.5689,-2.5689,-2.5745,-2.5755,-2.5757,-2.5756,-2.5758,-2.5757,-2.5769,-2.5762,-2.5755,-2.5754,-2.5753,-2.5752,0,-2.5452,-2.5457,-2.5521,-2.5545,-2.5552,-2.5595,-2.5614,-2.5649,-2.5655,-2.5703,-2.5714,-2.5723,-2.5765,-2.5767,-2.5816,-2.5815,-2.5884,-2.5877,-2.5875,-2.5873,-2.5917,-2.5912,-2.6061,-2.608,-2.5954,-2.5956,-2.5957,0,-2.5517,-2.5558,-2.5586,-2.5611,-2.5626,-2.5666,-2.5691,-2.5689,-2.5714,-2.5747,-2.5777,-2.5818,-2.585,-2.5918,-2.5928,-2.5965,-2.5957,-2.6007,-2.5963,-2.5962,-2.5956,-2.5953,-2.5956,-2.6015,-2.6017,-2.6018,-2.6019,0,-2.5632,-2.5632,-2.5668,-2.5705,-2.5735,-2.5764,-2.579,-2.5811,-2.5812,-2.5842,-2.5885,-2.591,-2.5959,-2.5999,-2.6035,-2.6048,-2.6033,-2.6033,-2.6045,-2.6046,-2.6042,-2.6043,-2.5897,-2.6029,-2.6028,-2.6027,-2.6027,-2.6026,-2.5714,-2.5749,-2.5774,-2.5814,-2.5834,-2.5859,-2.5893,-2.5903,-2.5939,-2.5979,-2.5976,-2.6023,-2.6047,-2.6094,-2.611,-2.6146,-2.6129,-2.6147,-2.6151,-2.6155,-2.6158,-2.6038,-2.6153,-2.6153,-2.6153,-2.6152,-2.6152,0,-2.5826,-2.5841,-2.5878,-2.5916,-2.5948,-2.5932,-2.5961,-2.5988,-2.603,-2.6054,-2.6086,-2.6135,-2.6174,-2.6187,-2.6225,-2.6251,-2.6245,-2.6261,-2.6258,-2.6261,-2.6173,-2.6158,-2.6265,-2.6265,-2.6265,-2.6265,-2.6265,-2.6265,-2.5888,-2.5946,-2.5949,-2.6017,-2.6032,-2.6078,-2.6096,-2.6119,-2.6138,-2.6193,-2.6225,-2.6234,-2.6254,-2.6293,-2.6327,-2.633,-2.6344,-2.6362,-2.6362,-2.6279,-2.6267,-2.6256,-2.6242,-2.6365,-2.6366,-2.6447,-2.6447,-2.6448]},{"header":{"parameterUnit":"m.s-1","parameterCategory":1,"la1":30.2991,"la2":30.254,"lo1":-89.0895,"lo2":-89.0444,"dy":0.0017,"dx":0.0017,"nx":28,"ny":28,"refTime":"2024-07-22T21:00:00:Z","depth":0,"parameterNumber":3,"parameterNumberName":"V-component_of_WINDS"},"data":[0,0,0,0,0,0,0,0,0,0,0,0,0,0,0,0,0,0,0,0,0,0,0,0,0,0,0,0,0,0,0,0,0,0,0,0,0,0,0,0,0,0,0,0,0,0,0,0,0,0,0,0,0,0,0,0,0,0,-1.2945,-1.2945,0,-1.2964,-1.2964,-1.2965,-1.2947,-1.2946,-1.2946,-1.2945,-1.2966,-1.2967,-1.2969,0,0,0,0,0,0,0,0,0,0,0,0,0,-1.2893,-1.2895,-1.2945,-1.2945,-1.2945,-1.2964,-1.2964,-1.2965,-1.2947,-1.2946,-1.2945,-1.2945,-1.2966,-1.2967,-1.2969,0,0,0,0,0,0,0,0,0,0,0,0,0,-1.2915,-1.2895,-1.2945,-1.2939,-1.2938,-1.2964,-1.2964,-1.2965,-1.2947,-1.2946,-1.2945,-1.2944,-1.2965,-1.2967,-1.2969,-1.3002,0,0,-1.2975,-1.2975,0,0,0,0,0,0,0,0,-1.2913,-1.2917,-1.2939,-1.2939,-1.2939,-1.2952,-1.2954,-1.2977,-1.2948,-1.2944,-1.2945,-1.2944,-1.2962,-1.2964,-1.297,-1.3003,-1.3004,-1.2975,-1.2976,-1.2977,-1.2977,0,0,0,0,0,0,0,-1.2912,-1.2916,-1.2952,-1.294,-1.2939,-1.2935,-1.2937,-1.2958,-1.2959,-1.2944,-1.2943,-1.2945,-1.2962,-1.2969,-1.2971,-1.3004,-1.2975,-1.2976,-1.2977,-1.2978,-1.3063,-1.3064,0,0,0,0,0,0,-1.2911,-1.2914,-1.2952,-1.2953,-1.2923,-1.2937,-1.2939,-1.2949,-1.2959,-1.2959,-1.2946,-1.2945,-1.2966,-1.2969,-1.2972,-1.301,-1.2977,-1.2978,-1.2979,-1.3062,-1.3064,-1.3065,0,0,0,0,0,0,-1.291,-1.2915,-1.2951,-1.2933,-1.2938,-1.2939,-1.295,-1.295,-1.2956,-1.296,-1.296,-1.2953,-1.2965,-1.2969,-1.2994,-1.3011,-1.2979,-1.2981,-1.3061,-1.3063,-1.3064,-1.3088,0,0,0,0,0,0,-1.2909,-1.2914,-1.2927,-1.2934,-1.2939,-1.2973,-1.2951,-1.2951,-1.296,-1.2957,-1.2967,-1.2967,-1.2965,-1.2991,-1.2996,-1.3013,-1.2982,-1.3059,-1.3062,-1.3064,-1.3086,-1.309,-1.3094,0,0,0,0,0,-1.2907,-1.2933,-1.2927,-1.2932,-1.2954,-1.2974,-1.2977,-1.2973,-1.2961,-1.2973,-1.2976,-1.2967,-1.3008,-1.2994,-1.2999,-1.3017,-1.3058,-1.3061,-1.3064,-1.3084,-1.3089,-1.3094,0,0,0,0,0,0,-1.2929,-1.2934,-1.2928,-1.2957,-1.2965,-1.2971,-1.2987,-1.298,-1.2992,-1.2989,-1.2985,-1.2987,-1.3014,-1.3018,-1.3002,-1.3048,-1.3031,-1.3035,-1.3045,-1.305,-1.3055,-1.3053,-1.2984,0,0,0,0,0,-1.2937,-1.2952,-1.2956,-1.2982,-1.2986,-1.2986,-1.2994,-1.2991,-1.2999,-1.3003,-1.3007,-1.3016,-1.3031,-1.3041,-1.3055,-1.3086,-1.3088,-1.3101,-1.3105,-1.3108,-1.3112,-1.3128,-1.3134,-1.3073,-1.3073,-1.3073,0,0,-1.2954,-1.2959,-1.2969,-1.2986,-1.2992,-1.3008,-1.2989,-1.3007,-1.3019,-1.3006,-1.3029,-1.3033,-1.3042,-1.3071,-1.3083,-1.3075,-1.3129,-1.3112,-1.3114,-1.3116,-1.3131,-1.3137,-1.3142,-1.3075,-1.3075,-1.3075,0,0,-1.2994,-1.2999,-1.302,-1.3026,-1.3035,-1.3035,-1.304,-1.3047,-1.3048,-1.3072,-1.3062,-1.3076,-1.3102,-1.3109,-1.3116,-1.3157,-1.3149,-1.3162,-1.3184,-1.32,-1.3205,-1.3209,-1.3224,-1.3229,-1.3165,-1.3165,-1.3165,0,-1.3014,-1.3038,-1.3032,-1.3051,-1.3059,-1.3046,-1.3068,-1.3074,-1.3088,-1.3093,-1.3083,-1.3115,-1.3121,-1.315,-1.316,-1.3166,-1.3172,-1.3161,-1.3205,-1.3209,-1.3213,-1.3227,-1.3232,-1.3166,-1.3166,-1.3166,-1.3166,0,-1.3062,-1.3079,-1.3095,-1.3107,-1.3117,-1.3137,-1.3135,-1.3145,-1.314,-1.3141,-1.3165,-1.3171,-1.3186,-1.3192,-1.3188,-1.3221,-1.3215,-1.3205,-1.3188,-1.322,-1.3233,-1.3238,-1.3169,-1.3168,-1.3168,-1.3167,0,0,-1.3117,-1.3125,-1.3131,-1.3136,-1.3144,-1.3157,-1.3177,-1.319,-1.3199,-1.3208,-1.3225,-1.3246,-1.3236,-1.3244,-1.3241,-1.3255,-1.3287,-1.3243,-1.3243,-1.3251,-1.3323,-1.3331,-1.3337,-1.3281,-1.3282,-1.3283,-1.3322,0,-1.3156,-1.319,-1.3185,-1.3217,-1.3232,-1.322,-1.3237,-1.3244,-1.3245,-1.3258,-1.3259,-1.3274,-1.326,-1.3265,-1.3278,-1.328,-1.3301,-1.3277,-1.3297,-1.3297,-1.3295,-1.3344,-1.3353,-1.3389,-1.3327,-1.3328,-1.3329,0,-1.3207,-1.3218,-1.3251,-1.3256,-1.3262,-1.3277,-1.3289,-1.3302,-1.3309,-1.3309,-1.3317,-1.3311,-1.333,-1.3312,-1.3339,-1.3323,-1.333,-1.3332,-1.3334,-1.3336,-1.3315,-1.3347,-1.3401,-1.3407,-1.3337,-1.3336,-1.3336,0,-1.3244,-1.3266,-1.3288,-1.3293,-1.33,-1.3311,-1.3314,-1.3321,-1.3329,-1.3339,-1.3345,-1.3357,-1.3365,-1.3375,-1.3372,-1.3359,-1.3399,-1.3381,-1.34,-1.34,-1.3409,-1.3409,-1.3465,-1.3414,-1.3414,-1.3414,-1.3413,0,-1.3289,-1.331,-1.3305,-1.3319,-1.3342,-1.3336,-1.3359,-1.3361,-1.3366,-1.3381,-1.3371,-1.3385,-1.338,-1.3394,-1.3392,-1.3414,-1.3418,-1.3418,-1.3417,-1.3419,-1.3419,-1.3424,-1.3422,-1.3415,-1.3415,-1.3414,-1.3414,0,-1.3334,-1.3331,-1.3355,-1.3359,-1.336,-1.3377,-1.3381,-1.3394,-1.3393,-1.3411,-1.3415,-1.3415,-1.343,-1.3428,-1.3446,-1.3444,-1.3472,-1.3468,-1.347,-1.3469,-1.3488,-1.3486,-1.355,-1.3558,-1.3501,-1.3502,-1.3502,0,-1.3362,-1.3378,-1.3383,-1.3392,-1.3396,-1.341,-1.3418,-1.3413,-1.3422,-1.3431,-1.3443,-1.3457,-1.3468,-1.3493,-1.3495,-1.3508,-1.3504,-1.3526,-1.3506,-1.3507,-1.3505,-1.3504,-1.3506,-1.353,-1.353,-1.3531,-1.3531,0,-1.3414,-1.3412,-1.3424,-1.3435,-1.3444,-1.3453,-1.3461,-1.3469,-1.3464,-1.3475,-1.349,-1.3498,-1.3515,-1.353,-1.3542,-1.3546,-1.3538,-1.3537,-1.3542,-1.3544,-1.3544,-1.3545,-1.348,-1.3536,-1.3535,-1.3535,-1.3535,-1.3535,-1.3452,-1.3465,-1.347,-1.3484,-1.3489,-1.3496,-1.3508,-1.3509,-1.3522,-1.3535,-1.3531,-1.3548,-1.3555,-1.357,-1.3575,-1.3588,-1.3581,-1.3588,-1.359,-1.3592,-1.3594,-1.3542,-1.3591,-1.359,-1.359,-1.359,-1.359,0,-1.3503,-1.3505,-1.3518,-1.3529,-1.3539,-1.353,-1.3538,-1.3547,-1.3562,-1.3569,-1.3579,-1.3597,-1.361,-1.3613,-1.3625,-1.3636,-1.3633,-1.3639,-1.3639,-1.364,-1.36,-1.3595,-1.3642,-1.3642,-1.3642,-1.3642,-1.3642,-1.3642,-1.3531,-1.3552,-1.355,-1.3574,-1.3577,-1.3593,-1.3598,-1.3605,-1.361,-1.363,-1.3641,-1.3642,-1.3646,-1.366,-1.3672,-1.3672,-1.3677,-1.3686,-1.3685,-1.3648,-1.3643,-1.3638,-1.3632,-1.3687,-1.3687,-1.3723,-1.3723,-1.3724]}]]